Weather - Helsinki Query any day in the database

Current weather  

Weather data for a selected day (2006-01-01 -2020-10-31)
Enter date:     <-     scroll days         ->
day curves
Low temperature°C -1.023:50
High temperature°C +2.002:50
Low wind chill°C -823:50
Average temperature°C +0.4 
High wind speed (10 min) m/s 9.023:50
Low pressurehPa 973.012:20
High pressurehPa 991.000:20
Low R.H% 6919:20
High R.H% 10013:20
Day weather data as a table
Date Time Temp
°C
Chill
°C
Pressure
hPA
Wind
m/s
Hum
%
Precip
mm
2014-03-15 23:50:00 -1.0  -8.0  979.0 9.0 74 -
2014-03-15 23:20:00 -1.0  -8.0  979.0 9.0 74 -
2014-03-15 22:50:00 0.0  -6.3  979.0 8.0 69 -
2014-03-15 22:20:00 0.0  -6.3  979.0 8.0 74 -
2014-03-15 21:50:00 0.0  -6.7  979.0 9.0 74 -
2014-03-15 21:20:00 0.0  -6.3  979.0 8.0 74 -
2014-03-15 20:50:00 0.0  -6.7  978.0 9.0 74 -
2014-03-15 20:20:00 1.0  -5.0  978.0 8.0 69 -
2014-03-15 19:50:00 1.0  -4.6  978.0 7.0 69 -
2014-03-15 19:20:00 1.0  -4.6  978.0 7.0 69 -
2014-03-15 18:20:00 1.0  -3.7  977.0 5.0 80 -
2014-03-15 17:50:00 1.0  -4.2  977.0 6.0 86 -
2014-03-15 17:20:00 1.0  -5.0  977.0 8.0 86 -
2014-03-15 16:20:00 1.0  -5.0  976.0 8.0 86 -
2014-03-15 15:50:00 1.0  -5.0  975.0 8.0 93 -
2014-03-15 15:20:00 1.0  -5.0  975.0 8.0 93 -
2014-03-15 14:50:00 1.0  -4.6  974.0 7.0 93 -
2014-03-15 14:20:00 1.0  -4.6  974.0 7.0 93 -
2014-03-15 13:50:00 1.0  -4.2  974.0 6.0 93 -
2014-03-15 13:20:00 0.0  -5.5  974.0 6.0 100 -
2014-03-15 12:50:00 0.0  -5.5  974.0 6.0 100 -
2014-03-15 12:20:00 0.0  -5.9  973.0 7.0 100 -
2014-03-15 11:50:00 0.0  -5.5  973.0 6.0 100 -
2014-03-15 11:20:00 0.0  -5.5  973.0 6.0 100 -
2014-03-15 10:50:00 0.0  -4.9  973.0 5.0 100 -
2014-03-15 10:20:00 0.0  -4.9  973.0 5.0 100 -
2014-03-15 09:50:00 0.0  -4.9  973.0 5.0 100 -
2014-03-15 09:20:00 0.0  -4.9  974.0 5.0 100 -
2014-03-15 08:50:00 0.0  -5.5  974.0 6.0 100 -
2014-03-15 07:50:00 0.0  -4.3  975.0 4.0 100 -
2014-03-15 07:20:00 0.0  -4.3  976.0 4.0 100 -
2014-03-15 06:50:00 0.0  -4.3  977.0 4.0 100 -
2014-03-15 06:20:00 0.0  -4.3  977.0 4.0 100 -
2014-03-15 05:50:00 0.0  -4.3  979.0 4.0 100 -
2014-03-15 05:20:00 0.0  -4.3  980.0 4.0 100 -
2014-03-15 04:50:00 0.0  -4.9  981.0 5.0 100 -
2014-03-15 04:20:00 0.0  -3.5  982.0 3.0 100 -
2014-03-15 03:50:00 0.0  -4.3  983.0 4.0 100 -
2014-03-15 02:50:00 2.0  -2.9  986.0 6.0 80 -
2014-03-15 02:20:00 2.0  -2.9  987.0 6.0 80 -
2014-03-15 01:50:00 2.0  -2.4  988.0 5.0 80 -
2014-03-15 00:50:00 1.0  -4.2  990.0 6.0 86 -
2014-03-15 00:20:00 1.0  -3.7  991.0 5.0 86 -
Unit conversions: